Powrót do katalogu

BREEZE-M DEB

TANK

AktywnyHEO
NORAD 40366·DEBRIS·🇷🇺 Russia

Wystrzelony Dec 27, 2014 z Baikonur Cosmodrome

Loading…

Następne Przeloty (najbliższe 24 godziny)

TLE

ŚwieżeSource: Space-Track

Epoka: Sep 14, 2026, 04:01 UTC

1 40366U 14089C   26257.16804089  .00001192  00000-0  39112-3 0  9991
2 40366  49.5651 324.9505 5120930 320.4140  11.6777  5.37228658224501

Śledź BREEZE-M DEB w czasie rzeczywistym z AllMySat

Download on the App Store